Saint Johns, AZ

3:48 AM MST on February 12, 2016 (GMT -0700)
Saint Johns Industrial

Weather History for KSJN - March, 2012

Change the Weather History Date:

Tuesday, March 27, 2012

  Actual Average (KSOW) Record (KSOW)
Temperature  
Mean Temperature 50 °F -  
Max Temperature 73 °F 57 °F 74 °F (1988)
Min Temperature 27 °F 36 °F 17 °F (2009)
Degree Days  
Heating Degree Days 15    
Moisture  
Dew Point 7 °F    
Average Humidity 24    
Maximum Humidity 51    
Minimum Humidity 5    
Precipitation  
Precipitation 0.00 in - - ()
Sea Level Pressure  
Sea Level Pressure 29.97 in    
Wind  
Wind Speed 5 mph (SW)    
Max Wind Speed 18 mph    
Max Gust Speed 26 mph    
Visibility 10 miles    
Events      
Averages and records for this station are not official NWS values.
T = Trace of Precipitation, MM = Missing Value Source: NWS Daily Summary

Daily Weather History Graph

Daily Weather History Graph

Search for Another Location

Airport or City:

Trip Planner

Search our weather history database for the weather conditions in past years. The results will help you decide how hot, cold, wet, or windy it might be!

Date:

Astronomy

Mar. 27, 2012 Rise Set
Actual Time 6:10 AM MST 6:35 PM MST
Civil Twilight 5:45 AM MST 7:00 PM MST
Nautical Twilight 5:15 AM MST 7:29 PM MST
Astronomical Twilight 4:45 AM MST 8:00 PM MST
Moon 8:56 AM MST (3/27) 11:28 PM MST (3/27)
Length of Visible Light 13h 14m
Length of Day
12h 24m
Waxing Crescent, 23% of the Moon is Illuminated
Mar 27
Waxing Crescent
Mar 30
First Quarter
Apr 6
Full
Apr 13
Last Quarter
Apr 21
New

Hourly Weather History & Observations

Time (MST) Temp. Windchill Dew Point Humidity Pressure Visibility Wind Dir Wind Speed Gust Speed Precip Events Conditions
12:54 AM 34.0 °F 31.0 °F 15.1 °F 46% 29.96 in 10.0 mi South 3.5 mph - N/A   Clear
1:54 AM 33.1 °F 30.0 °F 15.1 °F 48% 29.94 in 10.0 mi South 3.5 mph - N/A   Clear
2:54 AM 28.9 °F - 12.0 °F 49% 29.96 in 10.0 mi Calm Calm - N/A   Clear
3:54 AM 27.0 °F - 10.9 °F 51% 29.99 in 10.0 mi Calm Calm - N/A   Clear
4:54 AM 28.9 °F - 12.0 °F 49% 29.99 in 10.0 mi Calm Calm - N/A   Clear
5:54 AM 28.9 °F - 10.9 °F 47% 30.02 in 10.0 mi Calm Calm - N/A   Clear
6:54 AM 28.0 °F 21.7 °F 10.9 °F 49% 30.07 in 10.0 mi South 5.8 mph - N/A   Clear
7:54 AM 39.9 °F - 10.0 °F 29% 30.04 in 10.0 mi Calm Calm - N/A   Clear
8:54 AM 48.0 °F - 10.9 °F 22% 30.03 in 10.0 mi Calm Calm - N/A   Clear
9:54 AM 55.0 °F - 10.0 °F 17% 30.01 in 10.0 mi Variable 3.5 mph - N/A   Clear
10:54 AM 63.0 °F - -0.9 °F 8% 29.98 in 10.0 mi NW 4.6 mph - N/A   Clear
11:54 AM 66.0 °F - 3.9 °F 9% 29.97 in 10.0 mi Calm Calm - N/A   Clear
12:54 PM 69.1 °F - 7.0 °F 9% 29.93 in 10.0 mi Variable 5.8 mph - N/A   Clear
1:54 PM 72.0 °F - -0.0 °F 6% 29.90 in 10.0 mi West 17.3 mph 26.5 mph N/A   Clear
2:54 PM 73.9 °F - 1.0 °F 6% 29.89 in 10.0 mi SW 18.4 mph 25.3 mph N/A   Clear
3:54 PM 73.0 °F - -2.0 °F 5% 29.90 in 10.0 mi SW 17.3 mph 24.2 mph N/A   Clear
4:54 PM 71.1 °F - -0.0 °F 6% 29.90 in 10.0 mi WSW 18.4 mph 24.2 mph N/A   Clear
5:54 PM 66.9 °F - 1.9 °F 8% 29.92 in 10.0 mi SW 16.1 mph - N/A   Clear
6:54 PM 61.0 °F - 3.9 °F 10% 29.96 in 10.0 mi WSW 11.5 mph - N/A   Clear
7:54 PM 54.0 °F - 7.0 °F 15% 29.97 in 10.0 mi SW 8.1 mph - N/A   Clear
8:54 PM 51.1 °F - 10.0 °F 19% 29.97 in 10.0 mi SSW 9.2 mph - N/A   Clear
9:54 PM 43.0 °F 40.3 °F 9.0 °F 25% 29.99 in 10.0 mi WSW 4.6 mph - N/A   Clear
10:54 PM 46.0 °F 42.5 °F 9.0 °F 22% 29.95 in 10.0 mi South 6.9 mph - N/A   Clear
11:54 PM 43.0 °F 38.8 °F 9.0 °F 25% 29.94 in 10.0 mi South 6.9 mph - N/A   Clear